QPF
0.00 0.00 0.00 0.00 0.00 0.00 0.00 0.00 0.00 0.00 0.00 0.00 0.00 0.00 0.00 0.00 0.00 0.00 0.00 0.00 0.00 0.00 0.00 0.00 0.00 0.00 0.00 0.00 0.00 0.00 0.00 0.00 0.00 0.00 0.00 0.00 0.00 0.00 0.00 0.00 0.00 0.00 0.00 0.00
0.00 0.00 0.00 0.00 0.00 0.00 0.00 0.00 0.00 0.00 0.00 0.00 0.00 0.00 0.00 0.00 0.00 0.00 0.00 0.00 0.00 0.00 0.00 0.00 0.00 0.00 0.00 0.00 0.00 0.00 0.00 0.00 0.00 0.00 0.00 0.00 0.00 0.00 0.00 0.00 0.00 0.00 0.00 0.00
0.00 0.00 0.00 0.00 0.00 0.00 0.00 0.00 0.00 0.00 0.00 0.00 0.00 0.00 0.00 0.00 0.00 0.00 0.00 0.00 0.00 0.00 0.00 0.00 0.00 0.00 0.00 0.00 0.00 0.00 0.00 0.00 0.00 0.00 0.00 0.00 0.00 0.00 0.00 0.00 0.00 0.00 0.00 0.00
0.00 0.00 0.00 0.00 0.00 0.00 0.00 0.00 0.00 0.00 0.00 0.00 0.00 0.00 0.00 0.00 0.00 0.00 0.00 0.00 0.00 0.00 0.00 0.00 0.00 0.00 0.00 0.00 0.00 0.00 0.00 0.00 0.00 0.00 0.00 0.00 0.00 0.00 0.00 0.00 0.00 0.00 0.00 0.00
0.00 0.00 0.00 0.00 0.00 0.00 0.00 0.00 0.00 0.00 0.00 0.00 0.00 0.00 0.00 0.00 0.00 0.00 0.00 0.00 0.00 0.00 0.00 0.00 0.00 0.00 0.00 0.00 0.00 0.00 0.00 0.00 0.00 0.00 0.00 0.00 0.00 0.00 0.00 0.00 0.00 0.00 0.00 0.00
0.00 0.00 0.00 0.00 0.00 0.00 0.00 0.00 0.00 0.00 0.00 0.00 0.00 0.00 0.00 0.00 0.00 0.00 0.00 0.00 0.00 0.00 0.00 0.00 0.00 0.00 0.00 0.00 0.00 0.00 0.00 0.00 0.00 0.00 0.00 0.00 0.00 0.00 0.00 0.00 0.00 0.00 0.00 0.00
0.00 0.00 0.00 0.00 0.00 0.00 0.00 0.00 0.00 0.00 0.00 0.00 0.00 0.00 0.00 0.00 0.00 0.00 0.00 0.00 0.00 0.00 0.00 0.00 0.00 0.00 0.00 0.00 0.00 0.00 0.00 0.00 0.00 0.00 0.00 0.00 0.00 0.00 0.00 0.00 0.00 0.00 0.00 0.00
0.00 0.00 0.00 0.00 0.00 0.00 0.00 0.00 0.00 0.00 0.00 0.00 0.00 0.00 0.00 0.00 0.00 0.00 0.00 0.00 0.00 0.00 0.00 0.00 0.00 0.00 0.00 0.00 0.00 0.00 0.00 0.00 0.00 0.00 0.00 0.00 0.00 0.00 0.00 0.00 0.00 0.00 0.00 0.00
0.00 0.00 0.00 0.00 0.00 0.00 0.00 0.00 0.00 0.00 0.00 0.00 0.00 0.00 0.00 0.00 0.00 0.00 0.00 0.00 0.00 0.00 0.00 0.00 0.00 0.00 0.00 0.00 0.00 0.00 0.00 0.00 0.00 0.00 0.00 0.00 0.00 0.00 0.00 0.00 0.00 0.01 0.01 0.00
0.00 0.00 0.00 0.00 0.00 0.00 0.00 0.00 0.00 0.00 0.00 0.00 0.00 0.00 0.00 0.00 0.00 0.00 0.00 0.00 0.00 0.00 0.00 0.00 0.00 0.00 0.00 0.00 0.00 0.00 0.00 0.00 0.00 0.00 0.00 0.00 0.00 0.00 0.00 0.00 0.01 0.03 0.02 0.01
0.00 0.00 0.00 0.00 0.00 0.00 0.00 0.00 0.00 0.00 0.00 0.00 0.00 0.00 0.00 0.00 0.00 0.00 0.00 0.00 0.00 0.00 0.00 0.00 0.00 0.00 0.00 0.00 0.00 0.00 0.00 0.00 0.00 0.00 0.00 0.00 0.00 0.00 0.00 0.00 0.02 0.03 0.03 0.04
0.00 0.00 0.00 0.00 0.00 0.00 0.00 0.00 0.00 0.00 0.00 0.00 0.00 0.00 0.00 0.00 0.00 0.00 0.00 0.00 0.00 0.00 0.00 0.00 0.00 0.00 0.00 0.00 0.00 0.00 0.00 0.00 0.00 0.00 0.00 0.00 0.00 0.00 0.00 0.00 0.00 0.00 0.01 0.03
0.00 0.00 0.00 0.00 0.00 0.00 0.00 0.00 0.00 0.00 0.00 0.00 0.00 0.00 0.00 0.00 0.00 0.00 0.00 0.00 0.00 0.00 0.00 0.00 0.00 0.00 0.00 0.00 0.00 0.00 0.00 0.00 0.00 0.00 0.00 0.00 0.00 0.00 0.00 0.00 0.00 0.00 0.00 0.01
0.00 0.00 0.00 0.00 0.00 0.00 0.00 0.00 0.00 0.00 0.00 0.00 0.00 0.00 0.00 0.00 0.00 0.00 0.00 0.00 0.00 0.00 0.00 0.00 0.00 0.00 0.00 0.00 0.00 0.00 0.00 0.00 0.00 0.00 0.00 0.00 0.00 0.00 0.00 0.00 0.00 0.00 0.00 0.00
0.00 0.00 0.00 0.00 0.00 0.00 0.00 0.00 0.00 0.00 0.00 0.00 0.00 0.00 0.00 0.00 0.00 0.00 0.00 0.00 0.00 0.00 0.00 0.00 0.00 0.00 0.00 0.00 0.00 0.00 0.00 0.00 0.00 0.00 0.00 0.00 0.00 0.00 0.00 0.00 0.00 0.00 0.00 0.00
0.00 0.00 0.00 0.00 0.00 0.00 0.00 0.00 0.00 0.00 0.00 0.00 0.00 0.00 0.00 0.00 0.00 0.00 0.00 0.00 0.00 0.00 0.00 0.00 0.00 0.00 0.00 0.00 0.00 0.00 0.00 0.00 0.00 0.00 0.00 0.00 0.00 0.00 0.00 0.00 0.00 0.00 0.00 0.00
0.00 0.00 0.00 0.00 0.00 0.00 0.00 0.00 0.00 0.00 0.00 0.00 0.00 0.00 0.00 0.00 0.00 0.00 0.00 0.00 0.00 0.00 0.00 0.00 0.00 0.00 0.00 0.00 0.00 0.00 0.00 0.00 0.00 0.00 0.00 0.00 0.00 0.00 0.00 0.00 0.00 0.00 0.00 0.00
0.00 0.00 0.00 0.00 0.00 0.00 0.00 0.00 0.00 0.00 0.00 0.00 0.00 0.00 0.00 0.00 0.00 0.00 0.00 0.00 0.00 0.00 0.00 0.00 0.00 0.00 0.00 0.00 0.00 0.00 0.00 0.00 0.00 0.00 0.00 0.00 0.00 0.00 0.00 0.00 0.00 0.00 0.00 0.00
0.00 0.00 0.00 0.00 0.00 0.00 0.00 0.00 0.00 0.00 0.00 0.00 0.00 0.00 0.00 0.00 0.00 0.00 0.00 0.00 0.00 0.00 0.00 0.00 0.00 0.00 0.00 0.00 0.00 0.00 0.00 0.00 0.00 0.00 0.00 0.00 0.00 0.00 0.00 0.00 0.00 0.00 0.00 0.00
0.00 0.00 0.00 0.00 0.00 0.00 0.00 0.00 0.00 0.00 0.00 0.00 0.00 0.00 0.00 0.00 0.00 0.00 0.00 0.00 0.00 0.00 0.00 0.00 0.00 0.00 0.00 0.00 0.00 0.00 0.00 0.00 0.00 0.00 0.00 0.00 0.00 0.00 0.00 0.00 0.00 0.00 0.00 0.00
0.00 0.00 0.00 0.00 0.00 0.00 0.00 0.00 0.00 0.00 0.00 0.00 0.00 0.00 0.00 0.00 0.00 0.00 0.00 0.00 0.00 0.00 0.00 0.00 0.00 0.00 0.00 0.00 0.00 0.00 0.00 0.00 0.00 0.00 0.00 0.00 0.00 0.00 0.00 0.00 0.00 0.00 0.00 0.00
0.00 0.00 0.00 0.00 0.00 0.00 0.00 0.00 0.00 0.00 0.00 0.00 0.00 0.00 0.00 0.00 0.00 0.00 0.00 0.00 0.00 0.00 0.00 0.00 0.00 0.00 0.00 0.00 0.00 0.00 0.00 0.00 0.00 0.00 0.00 0.00 0.00 0.00 0.00 0.00 0.00 0.00 0.00 0.00
0.00 0.00 0.00 0.00 0.00 0.00 0.00 0.00 0.00 0.00 0.00 0.00 0.00 0.00 0.00 0.00 0.00 0.00 0.00 0.00 0.00 0.00 0.00 0.00 0.00 0.00 0.00 0.00 0.00 0.00 0.00 0.00 0.00 0.00 0.00 0.00 0.00 0.00 0.00 0.00 0.00 0.00 0.00 0.00
0.00 0.00 0.00 0.00 0.00 0.00 0.00 0.00 0.00 0.00 0.00 0.00 0.00 0.00 0.00 0.00 0.00 0.00 0.00 0.00 0.00 0.00 0.00 0.00 0.00 0.00 0.00 0.00 0.00 0.00 0.00 0.00 0.00 0.00 0.00 0.00 0.00 0.00 0.00 0.00 0.00 0.00 0.00 0.00
0.00 0.00 0.00 0.00 0.00 0.00 0.00 0.00 0.00 0.00 0.00 0.00 0.00 0.00 0.00 0.00 0.00 0.00 0.00 0.00 0.00 0.00 0.00 0.00 0.00 0.00 0.00 0.00 0.00 0.00 0.00 0.00 0.00 0.00 0.00 0.00 0.00 0.00 0.00 0.00 0.00 0.00 0.00 0.00
0.01 0.01 0.01 0.01 0.01 0.01 0.00 0.00 0.00 0.00 0.00 0.00 0.00 0.00 0.00 0.00 0.00 0.00 0.00 0.00 0.00 0.00 0.00 0.00 0.00 0.00 0.00 0.00 0.00 0.00 0.00 0.00 0.00 0.00 0.00 0.00 0.00 0.00 0.00 0.00 0.00 0.00 0.00 0.00
0.03 0.03 0.02 0.02 0.02 0.01 0.01 0.01 0.01 0.01 0.01 0.00 0.00 0.00 0.00 0.00 0.00 0.00 0.00 0.00 0.00 0.00 0.00 0.00 0.00 0.00 0.00 0.00 0.00 0.00 0.00 0.00 0.00 0.00 0.00 0.00 0.00 0.00 0.00 0.00 0.00 0.00 0.00 0.00
MSLP
1025.44 1025.34 1025.25 1025.12 1024.90 1024.57 1024.07 1023.41 1022.61 1021.72 1020.82 1020.02 1019.42 1019.10 1019.13 1019.53 1020.28 1021.33 1022.60 1024.00 1025.43 1026.79 1028.01 1029.07 1029.93 1030.61 1031.11 1031.47 1031.71 1031.85 1031.89 1031.83 1031.68 1031.43 1031.08 1030.63 1030.11 1029.52 1028.89 1028.25 1027.60 1026.95 1026.32 1025.70
1025.38 1025.11 1024.81 1024.47 1024.06 1023.56 1022.96 1022.26 1021.47 1020.65 1019.87 1019.20 1018.73 1018.52 1018.62 1019.05 1019.78 1020.79 1022.00 1023.33 1024.70 1026.03 1027.26 1028.35 1029.28 1030.04 1030.63 1031.07 1031.38 1031.56 1031.62 1031.58 1031.42 1031.15 1030.77 1030.30 1029.75 1029.14 1028.49 1027.82 1027.15 1026.48 1025.82 1025.18
1025.20 1024.75 1024.26 1023.71 1023.10 1022.45 1021.74 1021.00 1020.24 1019.52 1018.87 1018.36 1018.05 1017.98 1018.18 1018.66 1019.41 1020.38 1021.53 1022.79 1024.10 1025.38 1026.59 1027.69 1028.65 1029.47 1030.13 1030.63 1030.99 1031.20 1031.29 1031.25 1031.08 1030.80 1030.41 1029.93 1029.37 1028.74 1028.07 1027.38 1026.67 1025.96 1025.26 1024.58
1024.83 1024.24 1023.57 1022.84 1022.07 1021.28 1020.49 1019.72 1019.02 1018.40 1017.90 1017.57 1017.44 1017.53 1017.85 1018.41 1019.18 1020.13 1021.23 1022.41 1023.64 1024.86 1026.03 1027.11 1028.08 1028.91 1029.60 1030.14 1030.53 1030.77 1030.87 1030.83 1030.66 1030.38 1029.99 1029.51 1028.94 1028.32 1027.65 1026.94 1026.20 1025.46 1024.71 1023.98
1024.23 1023.54 1022.75 1021.89 1020.99 1020.11 1019.27 1018.51 1017.87 1017.36 1017.03 1016.88 1016.93 1017.19 1017.64 1018.28 1019.09 1020.03 1021.08 1022.19 1023.34 1024.49 1025.59 1026.63 1027.57 1028.40 1029.09 1029.64 1030.03 1030.28 1030.38 1030.34 1030.17 1029.89 1029.51 1029.04 1028.50 1027.90 1027.23 1026.53 1025.78 1025.01 1024.22 1023.45
1023.39 1022.65 1021.79 1020.86 1019.90 1018.97 1018.12 1017.40 1016.83 1016.45 1016.27 1016.30 1016.52 1016.94 1017.51 1018.24 1019.08 1020.02 1021.03 1022.08 1023.15 1024.21 1025.25 1026.22 1027.12 1027.92 1028.59 1029.12 1029.51 1029.74 1029.83 1029.79 1029.62 1029.35 1028.99 1028.55 1028.04 1027.47 1026.84 1026.15 1025.42 1024.64 1023.83 1023.02
1022.30 1021.56 1020.70 1019.75 1018.79 1017.87 1017.06 1016.39 1015.91 1015.65 1015.61 1015.79 1016.17 1016.71 1017.40 1018.20 1019.07 1020.01 1020.98 1021.98 1022.98 1023.97 1024.94 1025.86 1026.70 1027.46 1028.10 1028.61 1028.97 1029.19 1029.27 1029.22 1029.05 1028.79 1028.45 1028.04 1027.57 1027.05 1026.46 1025.82 1025.11 1024.35 1023.55 1022.72
1020.99 1020.30 1019.48 1018.58 1017.66 1016.79 1016.04 1015.46 1015.08 1014.93 1015.01 1015.31 1015.80 1016.46 1017.22 1018.08 1018.98 1019.91 1020.86 1021.81 1022.76 1023.69 1024.60 1025.46 1026.27 1026.99 1027.61 1028.09 1028.44 1028.64 1028.70 1028.64 1028.48 1028.22 1027.90 1027.52 1027.10 1026.63 1026.10 1025.51 1024.86 1024.14 1023.37 1022.56
1019.52 1018.89 1018.14 1017.32 1016.49 1015.71 1015.05 1014.55 1014.27 1014.22 1014.40 1014.79 1015.37 1016.10 1016.92 1017.81 1018.72 1019.65 1020.57 1021.49 1022.39 1023.28 1024.15 1024.99 1025.77 1026.47 1027.07 1027.55 1027.89 1028.09 1028.15 1028.09 1027.92 1027.68 1027.37 1027.03 1026.64 1026.22 1025.75 1025.23 1024.64 1023.99 1023.27 1022.51
1017.92 1017.37 1016.71 1015.99 1015.27 1014.59 1014.03 1013.63 1013.44 1013.47 1013.73 1014.19 1014.83 1015.59 1016.44 1017.34 1018.26 1019.17 1020.07 1020.96 1021.84 1022.71 1023.55 1024.38 1025.15 1025.86 1026.47 1026.96 1027.32 1027.53 1027.60 1027.55 1027.40 1027.16 1026.88 1026.55 1026.20 1025.82 1025.41 1024.96 1024.45 1023.87 1023.23 1022.54
1016.25 1015.76 1015.19 1014.58 1013.97 1013.41 1012.96 1012.66 1012.56 1012.66 1012.97 1013.47 1014.14 1014.92 1015.78 1016.68 1017.58 1018.48 1019.36 1020.23 1021.09 1021.94 1022.78 1023.61 1024.40 1025.13 1025.77 1026.30 1026.69 1026.94 1027.05 1027.03 1026.90 1026.69 1026.42 1026.12 1025.79 1025.46 1025.09 1024.70 1024.27 1023.77 1023.22 1022.62
1014.52 1014.09 1013.61 1013.10 1012.60 1012.16 1011.82 1011.61 1011.59 1011.75 1012.11 1012.64 1013.32 1014.11 1014.96 1015.84 1016.73 1017.60 1018.46 1019.31 1020.15 1021.00 1021.84 1022.69 1023.50 1024.27 1024.96 1025.55 1026.00 1026.31 1026.48 1026.51 1026.42 1026.25 1026.00 1025.73 1025.43 1025.12 1024.80 1024.46 1024.10 1023.69 1023.22 1022.71
1012.77 1012.38 1011.98 1011.57 1011.18 1010.84 1010.60 1010.49 1010.53 1010.75 1011.15 1011.71 1012.40 1013.18 1014.03 1014.89 1015.76 1016.61 1017.45 1018.28 1019.10 1019.94 1020.79 1021.65 1022.49 1023.30 1024.06 1024.71 1025.24 1025.64 1025.88 1025.98 1025.95 1025.83 1025.62 1025.38 1025.10 1024.82 1024.54 1024.25 1023.94 1023.61 1023.23 1022.81
1011.02 1010.66 1010.33 1010.01 1009.72 1009.48 1009.33 1009.29 1009.41 1009.68 1010.11 1010.69 1011.39 1012.18 1013.02 1013.87 1014.72 1015.56 1016.38 1017.19 1018.00 1018.82 1019.67 1020.54 1021.41 1022.26 1023.07 1023.80 1024.42 1024.90 1025.24 1025.43 1025.48 1025.42 1025.26 1025.05 1024.81 1024.56 1024.31 1024.06 1023.80 1023.53 1023.23 1022.88
1009.29 1008.98 1008.71 1008.47 1008.26 1008.10 1008.03 1008.06 1008.22 1008.54 1009.00 1009.60 1010.32 1011.11 1011.95 1012.80 1013.65 1014.48 1015.28 1016.08 1016.87 1017.69 1018.53 1019.39 1020.28 1021.17 1022.04 1022.83 1023.54 1024.12 1024.55 1024.84 1024.98 1024.99 1024.90 1024.74 1024.54 1024.32 1024.09 1023.88 1023.66 1023.44 1023.20 1022.93
1007.66 1007.40 1007.19 1007.01 1006.86 1006.76 1006.74 1006.81 1007.01 1007.35 1007.83 1008.45 1009.18 1009.98 1010.83 1011.70 1012.55 1013.38 1014.18 1014.96 1015.75 1016.55 1017.38 1018.25 1019.15 1020.07 1020.97 1021.83 1022.61 1023.29 1023.82 1024.21 1024.44 1024.54 1024.52 1024.42 1024.25 1024.06 1023.87 1023.69 1023.51 1023.33 1023.15 1022.94
1006.18 1005.98 1005.83 1005.69 1005.58 1005.51 1005.51 1005.59 1005.80 1006.14 1006.62 1007.24 1007.97 1008.79 1009.65 1010.53 1011.39 1012.23 1013.04 1013.83 1014.62 1015.41 1016.24 1017.10 1018.01 1018.95 1019.89 1020.80 1021.65 1022.41 1023.04 1023.52 1023.85 1024.03 1024.09 1024.05 1023.93 1023.78 1023.62 1023.46 1023.32 1023.18 1023.05 1022.89
1004.97 1004.82 1004.70 1004.59 1004.49 1004.41 1004.39 1004.45 1004.62 1004.94 1005.39 1005.99 1006.71 1007.52 1008.39 1009.28 1010.16 1011.02 1011.85 1012.65 1013.44 1014.24 1015.07 1015.94 1016.86 1017.81 1018.78 1019.74 1020.66 1021.49 1022.20 1022.77 1023.19 1023.46 1023.59 1023.61 1023.55 1023.44 1023.31 1023.19 1023.08 1022.98 1022.89 1022.79
1004.09 1003.98 1003.88 1003.76 1003.63 1003.51 1003.43 1003.43 1003.54 1003.78 1004.18 1004.73 1005.42 1006.21 1007.06 1007.95 1008.85 1009.72 1010.57 1011.39 1012.20 1013.02 1013.86 1014.74 1015.67 1016.65 1017.65 1018.65 1019.62 1020.51 1021.30 1021.95 1022.46 1022.80 1023.01 1023.09 1023.09 1023.02 1022.94 1022.85 1022.77 1022.72 1022.67 1022.63
1003.57 1003.49 1003.37 1003.22 1003.03 1002.83 1002.67 1002.57 1002.59 1002.74 1003.05 1003.52 1004.15 1004.88 1005.71 1006.58 1007.47 1008.35 1009.21 1010.05 1010.88 1011.71 1012.58 1013.48 1014.44 1015.44 1016.47 1017.52 1018.54 1019.49 1020.34 1021.07 1021.64 1022.07 1022.34 1022.49 1022.54 1022.53 1022.49 1022.44 1022.41 1022.40 1022.40 1022.41
1003.39 1003.30 1003.15 1002.94 1002.67 1002.38 1002.11 1001.90 1001.81 1001.85 1002.06 1002.43 1002.97 1003.63 1004.40 1005.22 1006.08 1006.94 1007.80 1008.64 1009.49 1010.34 1011.23 1012.16 1013.15 1014.18 1015.25 1016.34 1017.40 1018.41 1019.33 1020.12 1020.77 1021.27 1021.61 1021.83 1021.94 1021.98 1021.99 1021.99 1022.00 1022.03 1022.09 1022.14
1003.43 1003.31 1003.11 1002.83 1002.48 1002.10 1001.73 1001.43 1001.22 1001.16 1001.26 1001.53 1001.96 1002.54 1003.21 1003.97 1004.77 1005.59 1006.41 1007.24 1008.08 1008.95 1009.85 1010.80 1011.82 1012.88 1013.99 1015.12 1016.24 1017.30 1018.27 1019.13 1019.85 1020.41 1020.83 1021.11 1021.29 1021.39 1021.46 1021.51 1021.57 1021.65 1021.75 1021.85
1003.54 1003.38 1003.12 1002.78 1002.37 1001.92 1001.48 1001.10 1000.83 1000.68 1000.69 1000.86 1001.20 1001.66 1002.24 1002.90 1003.61 1004.36 1005.13 1005.92 1006.73 1007.59 1008.49 1009.46 1010.49 1011.59 1012.73 1013.90 1015.05 1016.16 1017.20 1018.11 1018.89 1019.53 1020.02 1020.37 1020.62 1020.79 1020.91 1021.02 1021.13 1021.26 1021.41 1021.55
1003.54 1003.33 1003.03 1002.65 1002.21 1001.74 1001.28 1000.88 1000.57 1000.39 1000.34 1000.44 1000.69 1001.05 1001.52 1002.07 1002.68 1003.33 1004.02 1004.74 1005.51 1006.33 1007.22 1008.18 1009.22 1010.33 1011.50 1012.69 1013.89 1015.04 1016.12 1017.09 1017.94 1018.64 1019.19 1019.62 1019.94 1020.18 1020.37 1020.54 1020.70 1020.88 1021.07 1021.25
1003.27 1003.02 1002.70 1002.31 1001.89 1001.45 1001.03 1000.67 1000.39 1000.22 1000.16 1000.22 1000.41 1000.70 1001.07 1001.51 1002.00 1002.54 1003.13 1003.76 1004.46 1005.22 1006.07 1007.01 1008.04 1009.15 1010.33 1011.55 1012.77 1013.95 1015.07 1016.09 1016.98 1017.74 1018.37 1018.86 1019.26 1019.57 1019.83 1020.05 1020.27 1020.50 1020.72 1020.94
1002.60 1002.33 1002.01 1001.67 1001.31 1000.96 1000.64 1000.38 1000.19 1000.08 1000.06 1000.13 1000.29 1000.52 1000.81 1001.15 1001.53 1001.96 1002.44 1002.98 1003.60 1004.30 1005.10 1006.00 1007.00 1008.10 1009.27 1010.49 1011.72 1012.92 1014.06 1015.11 1016.05 1016.86 1017.54 1018.10 1018.56 1018.94 1019.27 1019.56 1019.83 1020.10 1020.36 1020.60
1001.49 1001.22 1000.95 1000.68 1000.44 1000.22 1000.05 999.93 999.87 999.87 999.93 1000.04 1000.21 1000.41 1000.64 1000.91 1001.20 1001.54 1001.92 1002.37 1002.91 1003.54 1004.28 1005.14 1006.11 1007.18 1008.33 1009.53 1010.75 1011.95 1013.10 1014.17 1015.13 1015.98 1016.70 1017.32 1017.84 1018.28 1018.67 1019.02 1019.34 1019.65 1019.95 1020.22
Thickness
5658 5651 5647 5650 5646 5632 5634 5644 5644 5658 5655 5665 5667 5658 5643 5626 5605 5580 5558 5538 5518 5499 5479 5457 5437 5418 5400 5382 5363 5346 5330 5314 5298 5282 5268 5256 5245 5235 5224 5212 5201 5190 5179 5168
5649 5643 5637 5637 5645 5641 5636 5637 5640 5644 5649 5667 5663 5648 5632 5620 5600 5577 5560 5541 5521 5501 5479 5458 5438 5419 5400 5382 5363 5346 5329 5313 5297 5282 5268 5257 5247 5237 5227 5216 5204 5193 5182 5173
5653 5642 5638 5656 5671 5650 5644 5646 5646 5647 5663 5670 5652 5642 5634 5623 5602 5584 5567 5546 5525 5504 5483 5461 5440 5420 5400 5382 5363 5346 5330 5313 5297 5283 5270 5259 5250 5241 5231 5221 5210 5198 5188 5180
5641 5644 5641 5692 5671 5664 5655 5657 5652 5657 5664 5663 5654 5642 5628 5620 5608 5591 5571 5549 5528 5507 5484 5462 5440 5419 5400 5382 5364 5348 5332 5315 5299 5285 5272 5262 5253 5244 5235 5226 5215 5205 5196 5188
5625 5636 5659 5680 5663 5654 5651 5665 5670 5658 5660 5658 5635 5624 5635 5623 5606 5594 5574 5552 5531 5508 5485 5462 5440 5419 5400 5383 5367 5350 5334 5318 5303 5288 5275 5266 5257 5249 5241 5231 5222 5213 5205 5196
5609 5622 5642 5685 5665 5654 5654 5660 5679 5663 5660 5653 5624 5637 5646 5621 5600 5585 5568 5548 5526 5504 5482 5461 5441 5420 5402 5386 5370 5354 5338 5322 5307 5293 5281 5271 5262 5254 5245 5235 5227 5219 5211 5204
5606 5613 5648 5674 5649 5644 5649 5671 5677 5664 5659 5645 5632 5640 5629 5608 5593 5577 5560 5541 5521 5501 5482 5463 5442 5421 5404 5389 5374 5358 5341 5325 5312 5299 5287 5276 5267 5258 5249 5240 5232 5224 5217 5212
5610 5610 5641 5654 5642 5651 5673 5677 5669 5662 5655 5645 5640 5631 5608 5598 5584 5569 5553 5535 5518 5501 5483 5462 5442 5424 5407 5392 5377 5360 5344 5330 5317 5305 5292 5280 5271 5262 5254 5245 5237 5231 5226 5220
5631 5650 5664 5654 5660 5664 5660 5661 5661 5655 5651 5642 5634 5627 5608 5592 5578 5564 5550 5534 5517 5501 5483 5463 5444 5426 5411 5396 5378 5361 5347 5334 5322 5310 5298 5287 5277 5268 5259 5250 5242 5237 5232 5225
5625 5647 5657 5651 5653 5653 5650 5651 5656 5651 5645 5636 5629 5624 5609 5591 5576 5563 5549 5534 5517 5501 5484 5466 5447 5429 5413 5397 5379 5364 5351 5339 5326 5314 5303 5292 5281 5271 5262 5254 5246 5241 5235 5228
5628 5649 5648 5656 5654 5656 5655 5652 5649 5646 5640 5633 5626 5619 5606 5590 5577 5564 5549 5534 5518 5504 5489 5472 5451 5432 5415 5398 5381 5367 5354 5341 5329 5317 5306 5296 5285 5275 5265 5257 5248 5241 5235 5228
5646 5657 5649 5664 5665 5657 5651 5650 5649 5644 5640 5631 5621 5617 5604 5590 5578 5564 5550 5535 5519 5506 5492 5475 5455 5437 5418 5401 5385 5371 5357 5345 5333 5321 5309 5297 5287 5278 5269 5258 5250 5242 5235 5229
5656 5655 5650 5659 5656 5650 5647 5651 5649 5643 5640 5633 5620 5610 5601 5589 5577 5563 5550 5537 5524 5510 5495 5477 5459 5441 5423 5405 5389 5374 5361 5349 5336 5324 5312 5300 5288 5278 5271 5263 5254 5247 5239 5232
5643 5635 5630 5641 5644 5648 5646 5646 5640 5634 5631 5625 5617 5604 5595 5584 5573 5561 5551 5540 5527 5511 5495 5479 5462 5446 5428 5409 5393 5378 5365 5351 5339 5328 5316 5304 5293 5282 5274 5266 5260 5253 5244 5236
5633 5623 5623 5634 5639 5640 5637 5630 5624 5625 5622 5616 5607 5598 5588 5580 5572 5563 5551 5537 5523 5510 5496 5481 5465 5450 5431 5413 5397 5383 5369 5356 5343 5332 5320 5308 5296 5286 5277 5269 5262 5256 5249 5241
5619 5613 5612 5615 5624 5633 5635 5632 5629 5635 5633 5621 5606 5598 5589 5581 5571 5559 5547 5536 5524 5513 5499 5484 5470 5454 5435 5417 5401 5386 5372 5360 5347 5336 5324 5312 5300 5290 5281 5272 5265 5259 5253 5244
5593 5598 5603 5607 5617 5627 5634 5637 5638 5640 5636 5626 5613 5598 5584 5574 5565 5556 5546 5536 5527 5517 5503 5488 5473 5456 5438 5421 5406 5391 5377 5363 5350 5338 5327 5315 5304 5294 5283 5274 5268 5262 5255 5247
5595 5601 5606 5608 5614 5621 5630 5635 5634 5631 5627 5621 5606 5590 5579 5573 5570 5561 5546 5532 5521 5512 5502 5490 5474 5457 5440 5424 5409 5394 5380 5367 5354 5342 5330 5319 5309 5297 5286 5277 5270 5263 5257 5250
5588 5590 5594 5595 5599 5603 5611 5618 5619 5615 5609 5599 5590 5585 5580 5575 5570 5558 5543 5530 5522 5513 5503 5490 5474 5458 5442 5427 5411 5396 5382 5369 5356 5344 5333 5322 5311 5300 5290 5280 5273 5265 5259 5253
5571 5573 5575 5577 5579 5579 5585 5592 5591 5592 5590 5584 5579 5575 5570 5567 5560 5551 5540 5534 5534 5527 5510 5491 5475 5459 5444 5429 5414 5398 5385 5372 5360 5348 5336 5326 5315 5305 5294 5284 5275 5267 5261 5255
5550 5549 5549 5551 5557 5562 5567 5572 5574 5577 5574 5569 5569 5569 5568 5561 5552 5545 5536 5534 5528 5517 5506 5491 5477 5462 5446 5431 5416 5401 5387 5374 5363 5351 5340 5329 5319 5308 5297 5287 5277 5269 5262 5256
5531 5533 5534 5537 5540 5546 5549 5551 5555 5559 5559 5558 5557 5557 5555 5551 5545 5540 5537 5539 5528 5514 5504 5490 5478 5464 5449 5434 5419 5403 5389 5377 5365 5354 5343 5333 5322 5311 5300 5289 5280 5271 5263 5257
5518 5517 5517 5518 5520 5524 5527 5528 5532 5537 5541 5543 5544 5545 5545 5545 5540 5536 5533 5530 5523 5512 5503 5492 5480 5465 5450 5434 5421 5405 5392 5380 5368 5357 5346 5335 5325 5314 5303 5291 5282 5273 5265 5259
5497 5496 5495 5494 5493 5497 5504 5513 5511 5515 5520 5525 5528 5528 5529 5530 5529 5529 5529 5523 5517 5506 5499 5489 5478 5465 5449 5435 5421 5407 5394 5382 5370 5359 5348 5337 5327 5315 5304 5293 5283 5274 5266 5259
5471 5469 5470 5472 5476 5486 5489 5491 5492 5495 5499 5506 5510 5510 5510 5514 5518 5517 5517 5514 5509 5499 5491 5482 5473 5462 5448 5435 5421 5409 5396 5384 5373 5361 5350 5339 5329 5318 5307 5296 5285 5276 5268 5261
5451 5453 5457 5456 5459 5465 5469 5472 5477 5482 5483 5488 5491 5493 5494 5496 5499 5502 5503 5502 5499 5492 5484 5476 5467 5457 5446 5433 5421 5409 5397 5385 5373 5362 5351 5341 5331 5320 5309 5298 5287 5278 5270 5263
5436 5437 5438 5442 5447 5449 5451 5454 5459 5466 5469 5472 5476 5478 5479 5482 5484 5487 5490 5490 5489 5484 5476 5471 5465 5456 5444 5431 5419 5407 5396 5385 5375 5364 5352 5342 5332 5322 5312 5300 5290 5280 5272 5264